Location: ?
(35.4214°N, 139.3011°E)
Time: 22:34:29
(UTC+00:00)

Cosmos 1980 - Pass Details

Date: 14 July 2020
Orbit: 839 x 847 km, 71.0° (Epoch: 10 August)

Event Time Altitude Azimuth Distance (km) Brightness Sun altitude
Rises 11:08:43 0° 198° (SSW) 3,375 6.6 -12.8°
Reaches altitude 10° 11:11:09 10° 197° (SSW) 2,444 5.9 -13.2°
Maximum altitude 11:16:46 84° 110° (ESE) 847 3.6 -14.1°
Drops below altitude 10° 11:22:25 10° 23° (NNE) 2,460 6.3 -14.9°
Sets 11:24:52 0° 23° (NNE) 3,399 7.1 -15.3°
